[[[{"header":{"parameterUnit":"kt","parameterCategory":2,"dx":1,"dy":1,"la1":30.253999710083008,"la2":30.299108505249023,"lo1":-89.0895004272461,"lo2":-89.04439544677734,"nx":28,"ny":28,"refTime":"2022-10-12T21:00:00:Z","depth":0,"parameterNumber":1,"parameterNumberName":"U-component_of_WINDS"},"data":[2.004,1.9871,1.9694,1.9418,1.9209,1.8987,1.8849,1.8651,1.8446,1.8157,1.7957,1.7753,1.747,1.7183,1.6953,1.6864,1.6779,1.6856,1.6738,1.6568,1.6531,1.6497,1.6525,1.6841,1.6842,1.6939,1.694,1.6941,1.9943,1.9738,1.954,1.9223,1.905,1.8871,1.8602,1.8467,1.827,1.8015,1.7806,1.7533,1.7292,1.6973,1.6707,1.6619,1.6514,1.6561,1.6561,1.6518,1.6331,1.6364,1.665,1.665,1.665,1.665,1.665,1.665,1.9718,1.9625,1.9327,1.9106,1.8897,1.8685,1.856,1.8311,1.8109,1.7812,1.7627,1.7398,1.7101,1.6684,1.6496,1.6309,1.6222,1.6211,1.6206,1.6208,1.6237,1.6123,1.6255,1.6253,1.6251,1.625,1.6249,0,1.9495,1.9351,1.9144,1.8886,1.8713,1.8491,1.8256,1.8173,1.779,1.7638,1.74,1.723,1.6893,1.6644,1.6349,1.615,1.5934,1.5892,1.5883,1.5968,1.6087,1.602,1.5723,1.5887,1.5883,1.588,1.5878,1.5876,1.9252,1.9162,1.8758,1.8638,1.8461,1.8271,1.8117,1.7784,1.7636,1.7292,1.7221,1.6968,1.6746,1.639,1.6086,1.5831,1.5721,1.5806,1.568,1.5771,1.5718,1.5726,1.5714,1.5835,1.584,1.5845,1.5848,0,1.9133,1.8829,1.8627,1.823,1.8127,1.8048,1.7704,1.7591,1.7355,1.7166,1.7102,1.6728,1.6496,1.6175,1.5842,1.5681,1.5541,1.5443,1.5644,1.5606,1.5648,1.5647,1.5836,1.5843,1.5516,1.5519,1.5522,0,1.8802,1.8695,1.8246,1.8145,1.8014,1.7679,1.7557,1.734,1.7075,1.6922,1.6629,1.6491,1.6099,1.5915,1.5676,1.5504,1.5441,1.5306,1.5242,1.5329,1.5347,1.5237,1.5221,1.5105,1.5105,1.5104,1.5103,0,1.8643,1.8273,1.8108,1.7973,1.7532,1.7461,1.7273,1.697,1.6819,1.6572,1.6469,1.6205,1.6059,1.5858,1.5553,1.548,1.5335,1.5171,1.5196,1.5204,1.5175,1.518,1.5434,1.5102,1.5102,1.5102,1.5102,0,1.8324,1.8087,1.7892,1.7516,1.7431,1.732,1.7037,1.6867,1.6568,1.641,1.6211,1.5972,1.5795,1.5657,1.5407,1.5399,1.5272,1.5125,1.512,1.5079,1.4932,1.5115,1.5393,1.5408,1.5052,1.5052,1.5051,0,1.8226,1.7946,1.7653,1.7473,1.7298,1.6977,1.6846,1.6589,1.6367,1.6182,1.5932,1.5722,1.555,1.5437,1.5358,1.5089,1.5101,1.5079,1.481,1.4805,1.49,1.5152,1.5272,1.537,1.5041,1.5042,1.5043,0,1.8108,1.7571,1.7559,1.7389,1.6995,1.6843,1.6695,1.6411,1.6305,1.6046,1.5908,1.5604,1.5461,1.5278,1.5052,1.4985,1.5083,1.4838,1.4824,1.4892,1.5008,1.5124,1.5142,1.4946,1.4947,1.4947,1.5035,0,1.7695,1.7511,1.7466,1.7099,1.6932,1.6799,1.6453,1.6321,1.6122,1.5887,1.5679,1.5374,1.508,1.5012,1.4814,1.4765,1.472,1.4568,1.4403,1.4574,1.4593,1.4601,1.4403,1.4396,1.439,1.4386,0,0,1.7674,1.7402,1.708,1.6921,1.6759,1.6422,1.631,1.6111,1.5717,1.5611,1.5518,1.5045,1.4799,1.4581,1.4607,1.4488,1.4445,1.4397,1.4496,1.451,1.4521,1.4549,1.4564,1.4375,1.4373,1.4371,1.4369,0,1.7449,1.7216,1.711,1.6891,1.6554,1.6308,1.6285,1.5887,1.573,1.5522,1.524,1.5072,1.47,1.4477,1.4315,1.4417,1.421,1.4354,1.4527,1.445,1.4472,1.4489,1.4523,1.454,1.4355,1.4356,1.4356,0,1.7269,1.698,1.6892,1.6506,1.628,1.6104,1.5849,1.5673,1.5537,1.5166,1.4963,1.4746,1.4417,1.4256,1.417,1.408,1.4016,1.3972,1.3999,1.398,1.3888,1.3915,1.3939,1.3626,1.3625,1.3624,0,0,1.7121,1.6947,1.6525,1.6431,1.6309,1.594,1.581,1.5594,1.5308,1.5195,1.4909,1.4638,1.4416,1.4278,1.4051,1.3924,1.3826,1.3898,1.3932,1.3961,1.3959,1.3875,1.3902,1.362,1.362,1.362,0,0,1.7046,1.6556,1.6405,1.6252,1.5994,1.5566,1.552,1.5322,1.5083,1.5058,1.468,1.4591,1.4433,1.4228,1.4216,1.3985,1.383,1.3825,1.4124,1.4162,1.4195,1.4245,1.3904,0,0,0,0,0,1.6635,1.6617,1.6486,1.6408,1.5913,1.5643,1.5576,1.5266,1.5164,1.5135,1.4864,1.4649,1.4144,1.4124,1.405,1.4065,1.3568,1.3577,1.3586,1.3939,1.3983,1.4021,0,0,0,0,0,0,1.6601,1.6508,1.6485,1.6065,1.595,1.564,1.5398,1.5313,1.5159,1.5122,1.4709,1.4636,1.4364,1.414,1.4078,1.4099,1.3924,1.3572,1.358,1.3587,1.3954,1.399,1.4021,0,0,0,0,0,1.6574,1.6497,1.5786,1.6062,1.5962,1.5547,1.5396,1.5323,1.5198,1.4776,1.4696,1.4978,1.4373,1.4298,1.4102,1.4135,1.3965,1.3943,1.3577,1.3583,1.3589,1.3972,0,0,0,0,0,0,1.6553,1.6426,1.5759,1.5717,1.6044,1.5557,1.5471,1.5334,1.4854,1.4777,1.5026,1.5002,1.4379,1.432,1.4265,1.4166,1.3998,1.3976,1.3962,1.3582,1.3586,1.3591,0,0,0,0,0,0,1.6464,1.6394,1.5737,1.5733,1.5687,1.5569,1.5492,1.5278,1.4853,1.513,1.5095,1.5021,1.446,1.4336,1.4291,1.3969,1.4023,1.4002,1.3987,1.3978,1.3586,1.3589,0,0,0,0,0,0,1.6429,1.6367,1.5741,1.5707,1.5666,1.517,1.5373,1.4882,1.4856,1.5156,1.4844,1.4839,1.4482,1.443,1.4311,1.401,1.3979,1.4023,1.4008,1.3998,1.3991,0,0,0,0,0,0,0,1.64,1.6888,1.601,1.5685,1.5649,1.5328,1.5317,1.5305,1.4855,1.485,1.4846,1.4841,1.4145,1.4122,1.4098,1.4043,0,0,1.4025,1.4014,0,0,0,0,0,0,0,0,1.6906,1.6892,1.6008,1.6,1.5991,1.5327,1.5317,1.5308,1.4854,1.485,1.4847,1.4843,1.4139,1.412,1.4101,0,0,0,0,0,0,0,0,0,0,0,0,0,0,0,1.6008,1.6,0,1.5325,1.5317,1.531,1.4854,1.485,1.4847,1.4844,1.4134,1.4118,1.4102,0,0,0,0,0,0,0,0,0,0,0,0,0,0,0,0,0,0,0,0,0,0,0,0,0,0,0,0,0,0,0,0,0,0,0,0,0,0,0,0,0,0,0,0,0,0,0,0,0,0,0,0,0,0,0,0,0,0,0,0,0,0,0,0,0,0,0,0,0]}],[{"header":{"parameterUnit":"kt","parameterCategory":2,"dx":1,"dy":1,"la1":30.253999710083008,"la2":30.299108505249023,"lo1":-89.0895004272461,"lo2":-89.04439544677734,"nx":28,"ny":28,"refTime":"2022-10-12T21:00:00:Z","depth":0,"parameterNumber":2,"parameterNumberName":"V-component_of_WINDS"},"data":[10.1941,10.2168,10.2196,10.2465,10.2533,10.2718,10.2791,10.2888,10.2968,10.3188,10.3316,10.3357,10.344,10.3593,10.3727,10.374,10.3793,10.3861,10.3863,10.355,10.3507,10.3466,10.3415,10.3874,10.3875,10.4182,10.4185,10.4187,10.1722,10.1795,10.1945,10.2105,10.2233,10.2186,10.2306,10.2413,10.2577,10.2677,10.2803,10.2993,10.3143,10.3201,10.3346,10.3446,10.3425,10.3483,10.3472,10.3484,10.3153,10.3098,10.3498,10.3498,10.3498,10.3498,10.3498,10.3498,10.133,10.1465,10.1576,10.1737,10.1823,10.1928,10.2057,10.2106,10.2246,10.2405,10.2399,10.258,10.2677,10.2855,10.2917,10.3055,10.2991,10.3056,10.3072,10.3087,10.3103,10.2656,10.308,10.3079,10.3078,10.3077,10.3076,0,10.1047,10.1059,10.1201,10.1353,10.1469,10.1585,10.1693,10.1773,10.179,10.1903,10.2068,10.2164,10.2353,10.2503,10.2639,10.2688,10.2634,10.2631,10.2675,10.2679,10.267,10.2675,10.213,10.2615,10.2611,10.2609,10.2606,10.2605,10.0648,10.0801,10.0924,10.1021,10.1084,10.1238,10.1332,10.1336,10.1434,10.1562,10.1676,10.1829,10.195,10.2202,10.2241,10.2378,10.235,10.2535,10.2369,10.2373,10.2349,10.2338,10.2353,10.2564,10.2569,10.2573,10.2577,0,10.0421,10.0454,10.0695,10.0796,10.0827,10.0984,10.1067,10.1197,10.1224,10.1404,10.1446,10.1484,10.164,10.165,10.1825,10.1825,10.2078,10.2051,10.2048,10.2041,10.2204,10.2187,10.2737,10.2808,10.2337,10.2341,10.2345,0,10.0089,10.0287,10.0322,10.046,10.0681,10.0676,10.0893,10.0935,10.1017,10.1158,10.1105,10.1237,10.1227,10.1361,10.1359,10.1568,10.1601,10.161,10.1606,10.1612,10.1611,10.1653,10.1629,10.1594,10.1591,10.1589,10.1586,0,9.9725,9.9973,10.0199,10.0258,10.0379,10.0483,10.0537,10.0625,10.0713,10.0829,10.0886,10.1019,10.109,10.1193,10.1188,10.1076,10.1444,10.1287,10.1452,10.1453,10.1525,10.152,10.2013,10.1583,10.1582,10.1581,10.158,0,9.9456,9.9581,9.9902,10.0001,10.0064,10.021,10.0343,10.047,10.0565,10.0575,10.0664,10.0623,10.0807,10.0652,10.0904,10.0759,10.0831,10.0857,10.0869,10.0878,10.0702,10.0974,10.1447,10.1494,10.0899,10.0894,10.0889,0,9.9031,9.936,9.9357,9.9659,9.9811,9.9741,9.9902,9.9987,10.0012,10.0141,10.0166,10.0309,10.0196,10.024,10.0365,10.0392,10.0582,10.0368,10.0543,10.055,10.0519,10.0957,10.1022,10.1345,10.0816,10.0824,10.0829,0,9.87,9.8845,9.8898,9.8965,9.9078,9.9202,9.9388,9.953,9.9617,9.9715,9.9866,10.0068,9.999,10.0062,10.0039,10.0168,10.0454,10.0063,10.0065,10.0131,10.078,10.0842,10.0897,10.041,10.0418,10.0425,10.0772,0,9.8284,9.845,9.8597,9.8741,9.8839,9.9026,9.9035,9.9136,9.9108,9.9127,9.9348,9.941,9.9547,9.9609,9.9578,9.9872,9.9821,9.9733,9.9574,9.9863,9.9976,10.0023,9.9406,9.9401,9.9397,9.9394,0,0,9.7866,9.8101,9.8085,9.8264,9.8344,9.8261,9.846,9.8527,9.8662,9.8717,9.8632,9.8922,9.8974,9.9239,9.933,9.9385,9.9436,9.9332,9.9726,9.9763,9.9798,9.992,9.9968,9.9387,9.9385,9.9384,9.9383,0,9.7713,9.778,9.7979,9.805,9.8152,9.8163,9.8212,9.8294,9.8314,9.853,9.8449,9.8581,9.8809,9.8875,9.8939,9.9304,9.923,9.9345,9.9541,9.9687,9.9729,9.9767,9.9895,9.9942,9.9373,9.9374,9.9374,0,9.7386,9.7452,9.7548,9.7728,9.7791,9.7945,9.7786,9.7954,9.8067,9.7953,9.8166,9.82,9.8286,9.8536,9.8648,9.857,9.9043,9.8892,9.8917,9.8926,9.9067,9.9118,9.9163,9.8565,9.8562,9.8559,0,0,9.7251,9.7404,9.7466,9.7694,9.7741,9.7757,9.7837,9.7814,9.7898,9.793,9.7969,9.805,9.8182,9.8269,9.8392,9.8666,9.868,9.8793,9.8831,9.8862,9.8889,9.9038,9.9088,9.8549,9.8549,9.8548,0,0,9.7183,9.7268,9.7224,9.7489,9.7576,9.7646,9.7783,9.7728,9.784,9.7817,9.7778,9.7797,9.803,9.8063,9.7923,9.8334,9.8178,9.8211,9.8302,9.8351,9.8388,9.8372,9.7757,0,0,0,0,0,9.7028,9.7259,9.7218,9.7263,9.7482,9.7671,9.7698,9.7675,9.7567,9.7677,9.7701,9.7616,9.798,9.7855,9.7897,9.8051,9.8413,9.8437,9.846,9.8642,9.8692,9.8735,0,0,0,0,0,0,9.7045,9.7101,9.7212,9.7293,9.7342,9.7662,9.7475,9.7474,9.7555,9.7536,9.7615,9.7619,9.7598,9.7831,9.787,9.8016,9.7744,9.8422,9.8443,9.8461,9.8659,9.87,9.8736,0,0,0,0,0,9.7059,9.7104,9.7462,9.7289,9.7332,9.7357,9.7465,9.7464,9.7525,9.756,9.7561,9.75,9.7603,9.7633,9.7854,9.8,9.7718,9.7732,9.8435,9.8452,9.8466,9.8679,0,0,0,0,0,0,9.7069,9.7101,9.747,9.7481,9.7199,9.7338,9.736,9.7455,9.7541,9.7546,9.7441,9.7425,9.7609,9.7631,9.7655,9.7996,9.7696,9.7711,9.772,9.8448,9.846,9.8472,0,0,0,0,0,0,9.7077,9.7112,9.7476,9.7364,9.7362,9.7322,9.7341,9.7522,9.7543,9.7417,9.7407,9.7433,9.7571,9.7632,9.7649,9.7934,9.7679,9.7693,9.7703,9.7709,9.8458,9.8468,0,0,0,0,0,0,9.7091,9.7122,9.736,9.7359,9.7358,9.7488,9.748,9.7703,9.7455,9.7414,9.7431,9.742,9.7574,9.7591,9.7646,9.7924,9.7931,9.768,9.7689,9.7696,9.77,0,0,0,0,0,0,0,9.7103,9.6909,9.74,9.7356,9.7354,9.7591,9.7594,9.7598,9.7453,9.7443,9.7434,9.7425,9.7599,9.7614,9.763,9.7915,0,0,9.7678,9.7685,0,0,0,0,0,0,0,0,9.6895,9.6905,9.7401,9.7403,9.7406,9.7592,9.7594,9.7597,9.7451,9.7443,9.7436,9.7429,9.7603,9.7616,9.7628,0,0,0,0,0,0,0,0,0,0,0,0,0,0,0,9.7401,9.7403,0,9.7592,9.7594,9.7596,9.745,9.7444,9.7437,9.7431,9.7607,9.7617,9.7627,0,0,0,0,0,0,0,0,0,0,0,0,0,0,0,0,0,0,0,0,0,0,0,0,0,0,0,0,0,0,0,0,0,0,0,0,0,0,0,0,0,0,0,0,0,0,0,0,0,0,0,0,0,0,0,0,0,0,0,0,0,0,0,0,0,0,0,0,0]}]]]